Aduana, Mexico

9:02 AM on February 26, 2017 (GMT +0000)
Cancun International

Weather History for MMUN - November, 2011

Change the Weather History Date:

Monday, November 21, 2011

  Actual Average Record
Temperature  
Mean Temperature 78 °F -  
Max Temperature 84 °F 82 °F 89 °F (1998)
Min Temperature 73 °F 66 °F 60 °F (2001)
Cooling Degree Days 14    
Growing Degree Days 28 (Base 50)    
Moisture  
Dew Point 71 °F    
Average Humidity 78    
Maximum Humidity 89    
Minimum Humidity 66    
Precipitation  
Precipitation 0.00 in - - ()
Sea Level Pressure  
Sea Level Pressure 30.04 in    
Wind  
Wind Speed 7 mph ()    
Max Wind Speed 16 mph    
Max Gust Speed -    
Visibility 7.0 miles    
Events      
Averages and records for this station are not official NWS values.
T = Trace of Precipitation, MM = Missing Value Source: Averaged Metar Reports

Daily Weather History Graph

Daily Weather History Graph

Search for Another Location

Airport or City:

Trip Planner

Search our weather history database for the weather conditions in past years. The results will help you decide how hot, cold, wet, or windy it might be!

Date:

Astronomy

Nov. 21, 2011 Rise Set
Actual Time 6:01 AM CST 5:05 PM CST
Civil Twilight 5:37 AM CST 5:28 PM CST
Nautical Twilight 5:10 AM CST 5:55 PM CST
Astronomical Twilight 4:44 AM CST 6:22 PM CST
Moon 2:05 AM CST (11/21) 2:05 PM CST (11/21)
Length of Visible Light 11h 50m
Length of Day
11h 03m
Waning Crescent, 17% of the Moon is Illuminated
Nov 21
Waning Crescent
Nov 25
New
Dec 2
First Quarter
Dec 10
Full
Dec 17
Last Quarter

Hourly Weather History & Observations

Time (CST) Temp. Heat Index Dew Point Humidity Pressure Visibility Wind Dir Wind Speed Gust Speed Precip Events Conditions
12:40 AM 75.2 °F - 69.8 °F 83% 30.06 in 7.0 mi NE 3.5 mph - N/A   Partly Cloudy
1:45 AM 73.4 °F - 69.8 °F 88% 30.04 in 7.0 mi ENE 3.5 mph - N/A   Scattered Clouds
2:40 AM 75.2 °F - 71.6 °F 89% 30.04 in 7.0 mi NE 3.5 mph - N/A   Scattered Clouds
3:47 AM 75.2 °F - 69.8 °F 83% 30.03 in 7.0 mi ENE 4.6 mph - N/A   Scattered Clouds
4:43 AM 75.2 °F - 69.8 °F 83% 30.03 in 7.0 mi ENE 5.8 mph - N/A   Partly Cloudy
5:44 AM 75.2 °F - 69.8 °F 83% 30.06 in 7.0 mi ENE 5.8 mph - N/A   Partly Cloudy
6:40 AM 77.0 °F - 69.8 °F 78% 30.07 in 7.0 mi East 8.1 mph - N/A   Mostly Cloudy
7:46 AM 78.8 °F - 71.6 °F 78% 30.09 in 7.0 mi ENE 11.5 mph - N/A   Mostly Cloudy
8:48 AM 80.6 °F 84.6 °F 71.6 °F 74% 30.11 in 7.0 mi East 15.0 mph - N/A   Mostly Cloudy
9:42 AM 80.6 °F 85.4 °F 73.4 °F 79% 30.10 in 7.0 mi ESE 16.1 mph - N/A   Mostly Cloudy
10:43 AM 82.4 °F 89.5 °F 75.2 °F 79% 30.08 in 7.0 mi ESE 11.5 mph - N/A   Mostly Cloudy
11:41 AM 84.2 °F 89.6 °F 71.6 °F 66% 30.06 in 7.0 mi ESE 13.8 mph - N/A   Mostly Cloudy
12:52 PM 82.4 °F 87.2 °F 71.6 °F 70% 30.03 in 7.0 mi East 10.4 mph - N/A   Mostly Cloudy
1:44 PM 82.4 °F 87.2 °F 71.6 °F 70% 30.01 in 7.0 mi East 12.7 mph - N/A   Mostly Cloudy
2:42 PM 82.4 °F 87.2 °F 71.6 °F 70% 30.01 in 7.0 mi East 10.4 mph - N/A   Mostly Cloudy
3:41 PM 80.6 °F 84.6 °F 71.6 °F 74% 30.00 in 7.0 mi East 12.7 mph - N/A   Scattered Clouds
4:41 PM 78.8 °F - 71.6 °F 78% 30.00 in 7.0 mi East 9.2 mph - N/A   Scattered Clouds
5:42 PM 77.0 °F - 71.6 °F 83% 30.01 in 7.0 mi East 9.2 mph - N/A   Scattered Clouds
6:46 PM 77.0 °F - 69.8 °F 78% 30.03 in 7.0 mi East 8.1 mph - N/A   Scattered Clouds
7:41 PM 77.0 °F - 68.0 °F 74% 30.04 in 7.0 mi East 11.5 mph - N/A   Scattered Clouds
8:42 PM 77.0 °F - 68.0 °F 74% 30.05 in 7.0 mi East 10.4 mph - N/A   Partly Cloudy
9:47 PM 77.0 °F - 68.0 °F 74% 30.05 in 7.0 mi East 9.2 mph - N/A   Partly Cloudy
10:41 PM 77.0 °F - 68.0 °F 74% 30.04 in 7.0 mi East 8.1 mph - N/A   Partly Cloudy
11:51 PM 75.2 °F - 68.0 °F 78% 30.02 in 7.0 mi ESE 9.2 mph - N/A   Partly Cloudy